FIREFLY ALPHA R/B

基本信息
目录编号:
68128
目录名称:
FIREFLY ALPHA R/B
国际标识:
2026-046B
轨道中心:
EARTH
物体状态:
在轨
发射日期:
2026-03-12 UTC
国别:
美国 (US)
轨道信息
数据来源: 国际轨道数据
星历时间: 2026-09-05T03:54:31+0800
半长轴: 6732.999km
偏心率: 0.0004354
轨道倾角: 123.088°
近地点辐角: 12.982°
升交点赤经: 281.509°
平近点角: 347.136°
近地点: 351.93km
远地点: 357.794km
周期: 91.637分钟
每日圈数: 15.714116
详细信息
发射场:
AFWTR
轨道高度:
LEO
数据来源:
AOE Integration Group
参考系:
TEME
时间系统:
UTC
历元类型:
SGP4
2D轨道图
3D轨道图
轨道高度分析图
轨道倾角分析图
轨道综合分析图
查看轨道综合分析图